Theta_e
355 357 358 357 374 367 362 363 357 357 357 352 351 354 356 353 358 369 349 349 345 350 349 347 345 352 351 346 350 352 352 353 353 353 352 352 352 353 353 352 353 353 348 352 351 351 345 343 343
358 358 359 365 372 359 363 357 361 356 354 351 350 350 353 355 348 351 347 346 347 350 348 348 346 352 353 352 352 353 353 353 352 352 352 353 353 353 353 352 353 352 353 352 351 351 349 348 352
359 358 368 371 352 356 358 358 357 355 351 351 352 349 350 351 345 347 345 348 350 349 349 349 345 351 352 352 352 353 353 353 354 354 353 353 354 353 352 352 352 352 354 351 351 351 351 350 351
358 362 368 355 353 351 352 353 354 354 352 349 348 353 346 344 344 345 346 349 349 349 350 346 349 348 351 351 352 353 353 353 352 352 353 353 353 352 353 353 352 352 352 351 351 351 351 350 350
361 366 367 351 351 349 348 349 349 354 353 352 349 353 349 344 341 348 348 349 349 349 349 348 351 353 353 353 354 354 353 353 352 351 352 348 353 352 355 353 351 352 352 351 352 351 349 348 349
369 364 359 354 353 349 348 347 348 349 351 351 350 351 349 342 345 348 347 348 348 349 344 347 348 351 352 353 353 353 353 352 353 351 352 353 353 353 353 353 353 352 352 354 352 351 350 349 348
369 365 354 353 352 351 349 346 347 349 350 350 348 353 349 341 344 345 348 348 344 343 344 346 346 350 352 353 353 353 352 352 352 351 351 349 351 354 352 354 353 353 353 352 352 350 349 348 347
362 365 353 351 352 354 348 347 345 347 350 347 347 354 352 340 340 344 345 345 345 345 344 345 346 348 350 351 350 354 353 351 348 349 349 352 353 352 352 352 352 354 354 352 350 346 341 339 339
361 375 354 352 354 354 349 346 345 345 348 348 347 349 344 338 342 345 345 345 345 347 344 346 349 349 348 349 350 353 353 353 352 350 349 344 353 352 351 352 352 353 354 351 351 344 339 339 338
365 354 354 352 352 353 350 346 347 347 347 348 349 345 339 340 343 344 343 345 344 346 345 347 348 347 351 347 353 352 350 347 350 349 351 353 352 352 351 351 349 353 353 353 348 341 340 348 346
352 355 354 352 351 351 351 348 346 347 348 348 348 343 340 339 340 340 340 343 342 344 346 348 349 349 348 349 352 351 351 350 352 353 352 352 352 351 349 350 347 351 352 350 347 345 349 349 348
353 350 351 352 351 352 353 349 348 348 346 345 345 342 343 343 341 340 341 342 344 345 346 348 348 348 348 348 349 351 350 351 351 349 352 351 351 351 349 350 347 351 349 349 351 347 349 344 348
344 348 350 350 352 352 352 351 350 349 346 344 345 344 345 344 342 342 342 344 345 346 346 347 347 350 350 354 348 349 348 347 348 350 350 350 350 352 352 352 351 350 349 348 348 348 347 347 344
345 348 347 348 351 352 354 354 353 349 346 346 346 345 345 345 344 343 343 345 346 346 346 347 348 351 351 353 351 349 350 348 349 349 350 353 353 353 353 349 348 349 349 348 346 346 346 348 345
346 346 347 347 350 353 353 357 355 351 347 347 347 346 346 345 344 345 345 346 347 347 347 347 348 350 352 352 352 351 351 351 350 349 354 355 355 350 353 348 347 346 351 348 348 347 344 340 345
344 344 344 347 351 352 352 364 354 352 350 348 348 348 347 346 345 344 345 345 346 345 345 346 346 347 349 351 352 350 349 349 350 350 352 355 356 356 354 348 347 345 349 348 348 348 348 349 349
348 344 340 343 345 349 352 355 352 351 352 350 349 349 348 348 346 344 343 343 343 345 345 344 345 343 349 348 352 352 350 350 350 350 351 355 355 353 355 352 346 352 350 348 350 350 351 349 349
344 343 341 339 337 340 346 348 353 351 353 353 351 350 349 349 347 343 342 342 344 345 345 345 344 343 346 348 351 352 353 351 351 351 351 355 351 353 352 354 354 355 352 351 352 350 351 350 349
338 340 342 341 335 339 342 345 347 353 351 353 354 352 350 348 347 344 342 342 344 344 347 347 345 344 346 348 350 352 352 352 353 352 352 355 354 356 357 351 355 353 351 351 352 352 352 350 350
336 339 340 342 334 333 340 343 342 350 350 350 352 353 351 349 348 346 343 343 344 345 347 347 346 346 350 350 352 352 352 353 353 354 354 355 356 357 356 352 353 353 352 352 353 352 351 351 351
333 335 338 339 337 334 338 341 343 344 348 348 350 351 351 351 349 348 345 344 344 347 347 349 350 351 352 353 352 354 354 355 355 355 355 354 357 357 356 355 354 355 354 352 353 352 354 352 350
329 331 333 335 338 337 336 346 348 348 348 349 349 351 351 351 350 348 346 344 344 345 347 348 351 353 355 355 354 355 355 354 355 355 353 355 357 357 356 356 354 356 351 352 351 353 353 353 352
327 328 330 332 337 338 337 339 343 342 339 340 345 348 350 351 351 349 347 344 343 344 346 349 352 354 355 356 355 355 355 354 352 356 353 354 357 354 356 357 355 353 352 352 353 354 355 353 354
329 329 329 331 334 336 335 337 337 338 336 336 336 339 348 350 351 350 346 344 344 344 346 348 351 355 356 357 359 357 356 355 355 353 354 354 354 354 356 357 356 356 352 355 355 356 356 356 354
330 329 330 331 332 332 333 334 333 333 333 338 338 338 343 349 352 351 348 347 345 344 345 347 351 357 358 357 358 358 357 357 356 357 355 354 352 354 353 356 356 355 355 355 357 356 356 355 356
330 329 330 332 332 331 332 333 333 332 337 340 341 343 346 349 351 351 349 347 346 346 345 347 352 358 357 359 359 359 359 357 357 356 354 351 351 351 352 357 357 357 356 356 355 357 353 354 355
331 332 331 328 328 328 329 329 331 334 337 343 346 349 349 349 351 352 349 347 346 347 347 348 354 357 359 359 360 359 360 359 356 355 356 354 351 352 354 356 355 355 354 356 355 354 355 355 354
330 330 328 329 330 331 329 330 330 338 338 343 350 354 355 351 351 352 351 349 346 347 347 348 353 357 357 358 359 359 359 359 358 357 357 355 353 353 356 356 355 355 356 356 356 353 353 353 352
330 328 330 330 329 329 329 336 337 341 345 346 352 355 357 354 352 351 351 350 349 348 347 349 350 353 358 358 357 357 357 359 359 357 358 358 356 356 357 358 357 356 355 356 356 353 354 355 353
327 327 328 330 332 332 333 335 341 341 344 350 355 356 356 355 354 353 352 350 350 350 350 350 350 353 356 356 357 356 357 357 358 358 357 359 359 358 359 359 360 358 357 355 356 355 352 355 354
Wind_Speed
9 9 10 4 4 5 10 7 10 12 9 11 7 8 10 14 10 6 20 15 20 16 19 17 19 18 19 20 19 17 16 14 13 12 11 9 9 9 9 9 9 10 11 10 10 15 18 19 16
10 9 8 5 5 7 10 9 8 10 13 16 11 4 8 10 11 16 13 19 18 17 19 18 18 19 19 19 18 16 15 13 12 11 10 8 8 8 8 8 8 9 12 12 11 15 16 16 16
9 5 4 5 9 12 10 17 12 13 11 10 5 11 4 4 7 3 19 21 15 16 17 19 19 18 18 17 18 16 14 12 11 9 8 7 7 7 8 7 7 8 12 13 11 12 14 14 14
5 6 6 3 12 12 11 11 15 10 8 7 10 9 6 2 2 1 19 18 18 16 18 19 18 17 16 15 15 15 13 11 10 8 7 6 5 6 8 7 7 9 11 12 12 11 12 12 13
7 7 4 11 12 11 11 9 13 13 8 12 9 10 8 7 5 11 15 20 19 18 19 17 17 16 15 14 13 13 11 9 8 7 6 6 5 6 7 8 7 9 11 11 11 11 11 11 11
5 4 2 12 11 8 8 6 8 13 12 14 8 10 7 18 13 12 15 17 20 25 20 17 16 15 14 12 12 11 10 9 7 6 5 5 5 5 6 8 7 9 10 10 10 11 10 10 10
14 5 11 13 11 9 7 2 8 7 12 11 17 12 13 21 16 16 10 11 15 18 22 18 16 14 14 12 12 11 10 9 7 6 5 4 4 4 5 7 8 8 9 9 8 8 8 9 8
6 4 8 9 14 9 7 7 5 7 7 14 16 7 20 20 23 15 8 15 11 17 19 19 17 15 13 11 10 10 9 8 9 8 8 5 5 5 6 7 9 9 9 8 7 7 6 7 6
7 4 12 15 14 8 6 9 7 6 11 5 7 14 29 31 24 17 14 14 11 9 16 16 20 14 15 13 11 10 9 8 7 6 7 5 6 7 7 7 9 9 9 8 7 7 6 6 6
6 12 12 13 8 11 7 9 10 8 11 9 17 27 34 30 24 21 20 17 16 13 15 17 20 15 16 12 13 11 9 9 9 8 9 7 6 6 6 9 9 8 9 9 8 7 8 10 9
12 11 6 8 9 8 8 11 9 11 9 15 22 27 28 30 26 24 23 23 23 23 21 17 12 15 12 13 13 12 12 13 12 8 8 7 7 6 9 9 9 10 10 8 7 7 7 5 11
3 5 6 4 4 5 7 11 9 7 11 17 23 30 26 25 25 27 25 26 24 20 22 20 17 12 10 9 10 14 16 11 16 11 10 7 7 8 9 11 9 10 10 10 10 8 4 8 2
10 8 2 5 3 4 7 8 7 4 14 17 23 26 26 24 29 29 24 21 21 21 18 19 16 15 15 10 9 7 5 10 9 8 10 8 8 7 5 4 8 7 10 11 11 11 7 6 8
8 3 3 4 4 6 10 10 8 9 14 18 23 24 24 25 27 25 22 22 21 22 20 18 17 18 15 12 10 9 11 12 8 9 10 10 6 7 6 6 6 10 10 14 9 6 8 5 3
6 6 11 6 4 5 10 7 12 15 14 17 21 21 22 23 28 26 25 24 24 22 22 20 19 19 17 14 13 11 10 9 9 9 7 8 9 7 3 4 11 10 13 9 9 9 7 8 7
12 7 8 8 7 3 10 15 6 14 17 19 19 20 20 22 24 25 24 23 23 22 22 21 21 19 18 16 13 12 10 9 9 8 9 10 10 9 6 6 10 13 9 11 9 7 8 10 11
24 4 6 12 8 6 8 7 11 12 18 19 19 19 19 20 23 26 25 24 24 23 23 23 22 22 21 18 14 13 10 9 11 9 10 9 9 8 6 6 11 12 11 10 9 10 8 11 13
11 8 8 8 5 7 8 8 13 13 18 17 18 19 19 20 22 26 25 25 24 24 22 22 22 20 22 20 16 15 13 13 11 11 10 8 6 6 5 5 11 14 12 11 11 8 12 9 3
11 12 12 8 4 5 6 6 9 15 14 17 19 20 21 21 21 26 27 26 24 24 22 23 22 21 20 20 19 17 17 17 17 13 10 6 5 4 3 4 10 12 11 11 9 6 5 7 9
15 16 14 13 6 10 6 7 9 17 13 13 15 18 19 19 20 22 28 28 27 26 25 24 22 22 22 21 19 20 17 19 16 14 9 9 8 5 5 5 9 11 11 7 8 9 10 10 13
15 15 18 10 11 18 8 12 8 8 10 11 13 15 18 19 19 20 24 28 28 27 27 26 25 23 24 21 19 15 12 14 13 11 9 11 10 8 6 6 6 9 8 11 10 11 10 5 7
15 14 14 8 13 6 1 2 9 12 11 8 11 14 17 19 19 20 22 28 30 29 28 27 26 25 24 22 18 16 15 14 13 13 11 12 13 12 10 9 8 8 10 7 10 11 8 6 9
14 13 11 14 13 16 10 5 13 15 6 9 12 14 16 20 20 20 21 28 30 30 29 29 28 27 24 24 24 19 18 16 12 14 12 12 12 16 13 12 12 11 11 10 8 8 9 7 8
11 10 12 14 13 13 14 10 7 13 3 4 2 5 15 19 21 19 25 27 28 30 31 31 29 27 27 24 25 21 18 19 15 17 16 12 14 15 15 13 13 12 11 11 12 8 8 7 5
10 14 10 10 11 11 14 7 6 13 7 9 6 5 9 18 22 20 21 22 27 30 32 32 30 29 28 27 25 25 23 19 17 13 14 15 15 14 17 16 14 14 13 10 10 11 7 7 5
14 13 10 10 9 11 9 5 7 5 12 9 7 6 8 18 21 22 21 24 28 30 31 30 30 28 28 28 27 24 24 23 21 19 18 16 17 17 15 17 16 16 15 14 12 10 9 8 8
11 11 14 11 13 13 8 11 4 14 12 10 8 7 3 14 20 22 21 25 26 29 30 30 27 29 28 28 27 26 25 25 22 20 20 17 13 14 16 16 18 18 17 16 14 13 11 7 9
9 12 12 8 10 8 9 7 2 11 8 12 11 9 7 7 15 19 19 23 25 27 28 28 27 27 28 27 26 26 26 26 24 21 19 20 15 16 14 17 18 19 19 17 16 15 13 11 12
8 11 10 12 9 10 11 8 11 9 10 10 12 9 6 2 7 11 16 23 25 25 26 27 27 27 25 26 25 24 24 24 23 23 23 21 19 16 15 18 19 20 19 19 18 17 12 16 15
9 12 10 9 12 10 9 4 9 8 10 9 10 10 7 9 8 11 9 18 22 22 23 25 25 24 23 22 22 23 22 22 24 24 23 23 23 21 20 19 20 21 22 21 21 20 18 17 17
Wind_Direction
171 185 223 232 250 216 78 68 123 111 90 89 65 35 86 36 35 88 133 132 147 145 144 139 143 141 146 147 140 136 131 135 129 126 117 107 103 100 90 78 69 70 82 97 94 92 99 108 109
195 215 232 259 250 57 85 99 89 97 107 125 102 71 48 67 60 116 116 145 144 148 145 143 143 142 143 148 145 139 138 138 134 129 120 115 107 99 88 79 71 78 90 101 100 106 103 106 102
242 239 257 237 31 51 62 119 109 103 131 123 99 85 58 64 86 44 133 146 144 141 144 144 144 140 144 144 144 146 147 144 139 130 122 115 107 96 85 82 83 92 101 103 95 103 110 109 105
195 207 240 34 64 61 71 85 121 136 107 88 120 88 90 37 110 77 149 151 143 148 148 144 148 147 144 147 148 151 153 155 149 146 137 129 119 105 93 91 97 107 109 110 109 107 112 114 110
246 251 261 83 74 60 67 94 115 152 146 142 166 137 108 155 150 147 157 154 155 143 142 145 148 150 152 157 159 159 157 160 158 158 153 143 141 118 108 101 101 111 114 115 117 118 116 116 115
243 201 95 71 77 91 85 93 110 140 124 138 124 114 145 154 149 144 166 173 165 168 144 152 154 153 155 163 165 164 163 170 169 167 171 163 161 131 117 119 115 121 125 122 120 121 122 119 116
263 298 80 94 98 86 102 141 78 124 141 167 148 140 128 157 164 161 187 207 173 149 148 156 159 161 163 173 178 173 175 183 185 189 193 181 157 152 139 136 130 128 133 137 131 127 126 129 128
301 221 65 90 78 93 111 93 109 115 106 113 155 158 161 159 157 158 180 175 173 153 150 160 159 163 170 179 178 174 180 195 197 196 195 193 189 184 173 158 147 142 138 141 145 141 141 138 130
209 225 52 48 59 115 159 116 81 90 123 141 207 134 143 152 153 155 167 179 200 149 157 172 160 174 186 166 179 177 183 189 194 192 194 189 205 189 185 177 148 152 152 155 155 150 150 150 138
178 51 46 6 75 123 166 128 129 143 133 130 99 113 139 152 164 171 172 177 175 183 191 207 165 177 173 183 177 176 184 189 196 196 184 206 219 185 148 161 158 158 161 165 166 161 167 161 153
5 19 22 67 37 126 158 123 157 142 139 135 134 139 155 161 169 181 174 180 176 192 184 191 150 189 155 173 165 184 188 193 186 196 197 188 192 196 188 169 172 179 176 170 172 178 208 235 179
267 47 355 28 101 140 159 137 167 194 129 142 145 153 162 170 176 183 181 182 181 188 172 188 178 175 184 178 204 190 196 180 187 187 195 188 193 193 200 190 173 175 183 192 188 178 217 158 210
11 36 305 108 165 172 168 161 157 146 134 147 147 160 169 173 181 184 187 179 185 184 191 183 176 180 193 187 196 221 199 200 180 176 197 201 213 214 190 140 184 181 201 193 200 171 184 199 175
331 304 37 73 164 169 192 173 178 167 154 156 158 169 173 179 182 186 190 187 198 184 188 189 185 187 196 193 199 195 217 196 199 190 187 204 210 216 201 215 207 210 203 206 178 192 179 184 210
288 271 148 121 132 202 233 189 183 160 170 170 172 179 181 185 185 190 197 191 192 187 188 194 192 188 193 196 199 213 207 213 207 187 176 204 227 221 222 187 197 200 211 205 161 198 206 211 216
244 229 122 117 153 147 252 159 164 178 176 177 186 182 188 192 191 194 193 196 189 194 191 195 192 188 192 194 198 210 216 210 214 207 210 209 229 222 216 189 190 197 203 194 194 185 204 220 223
322 5 42 136 167 148 234 121 163 177 178 186 186 190 193 195 202 193 194 199 193 196 189 193 191 191 188 190 200 211 210 227 220 221 220 225 232 234 215 182 191 196 198 188 190 194 208 214 204
285 347 341 22 106 198 223 260 160 182 179 197 188 196 195 199 200 196 201 196 199 192 192 194 189 197 181 186 199 210 215 218 230 227 227 204 241 239 201 180 188 193 194 184 194 198 217 240 167
312 296 302 320 49 302 252 264 183 172 200 194 197 196 195 201 194 198 199 194 198 191 193 194 196 190 186 191 198 210 208 211 219 230 223 242 244 213 210 201 178 199 187 204 176 189 205 241 220
287 285 275 259 18 295 295 273 263 151 192 203 201 190 198 195 194 196 192 199 198 194 191 190 199 186 192 197 202 214 215 217 209 210 206 222 232 210 207 216 198 186 189 187 191 211 226 210 216
265 264 288 355 314 270 287 237 121 122 161 185 200 200 195 193 196 190 192 201 195 194 193 194 196 191 196 205 205 214 237 241 225 165 213 215 218 215 217 218 222 177 214 190 206 211 240 320 207
272 288 288 303 281 293 171 80 50 267 140 170 183 206 196 193 197 185 194 197 198 196 198 196 195 199 200 208 215 209 216 232 227 201 221 212 213 213 215 207 205 191 207 192 195 207 228 214 259
297 327 292 281 275 270 220 211 147 219 106 144 178 190 216 188 194 187 195 197 201 194 194 197 194 198 205 203 214 208 222 233 235 189 193 206 212 209 219 204 201 198 208 201 211 196 216 218 268
291 276 253 242 254 265 268 248 206 130 96 39 91 205 199 204 191 196 189 195 199 195 193 195 192 195 200 203 211 221 215 229 244 202 189 208 213 215 221 211 207 200 209 200 204 211 211 242 284
231 248 250 217 216 235 245 171 285 81 55 25 354 296 222 201 183 194 185 191 195 196 195 196 192 193 198 204 207 213 217 218 232 227 217 220 205 203 208 211 211 207 208 219 209 208 217 212 228
309 328 309 321 297 322 11 226 100 70 60 13 5 310 288 183 183 190 190 192 189 198 195 197 189 193 201 203 206 209 211 216 220 218 232 217 206 207 207 191 201 213 201 209 208 202 209 212 220
331 274 348 311 296 282 284 298 232 83 48 30 22 354 304 178 186 185 191 193 191 197 197 195 189 191 199 207 206 206 208 213 216 221 215 228 232 205 189 194 206 205 209 205 202 210 201 210 207
254 329 293 262 251 258 279 249 263 74 54 35 21 20 10 189 198 181 192 194 195 196 202 198 191 191 200 207 208 208 209 210 211 208 214 221 220 230 182 196 204 205 205 204 207 203 210 210 216
310 287 252 254 301 307 286 68 54 73 53 39 30 39 59 337 203 203 196 199 198 201 199 202 200 202 204 208 208 210 210 209 208 208 208 213 220 211 214 199 206 208 210 210 207 223 214 200 214
281 288 299 276 278 254 267 69 70 40 65 43 54 53 83 68 15 352 244 206 197 207 204 200 200 204 208 210 210 210 212 211 208 210 209 209 213 211 210 205 209 211 212 213 213 216 225 213 219